DAL2293 KLAS-KLAX

Flight info

Callsign DAL2293
Flight time N/A
Altitude 28000
Route RADYR2 BLAQQ SHTNR ANJLL4
Aircraft B739/M-SDE2E3FGHIRWXY/LB1

Departure

Time 2026-05-05 23:35
Airport Harry Reid International Airport (KLAS)

Arrival

Time N/A
Airport Los Angeles International Airport (KLAX)
Time Latitude Longitude Altitude Speed Heading
2026-05-05 22:18 36.07994 -115.14041 2092 ft 0 kts 61°
2026-05-05 23:28 36.07989 -115.14051 2092 ft 4 kts 62°
2026-05-05 23:28 36.07977 -115.14081 2092 ft 4 kts 67°
2026-05-05 23:28 36.07968 -115.14112 2092 ft 4 kts 77°
2026-05-05 23:28 36.07966 -115.14143 2093 ft 4 kts 112°
2026-05-05 23:29 36.07975 -115.14156 2094 ft 1 kts 179°
2026-05-05 23:29 36.07979 -115.14156 2094 ft 1 kts 179°
2026-05-05 23:31 36.07954 -115.14157 2094 ft 6 kts 184°
2026-05-05 23:31 36.07900 -115.14160 2094 ft 10 kts 181°
2026-05-05 23:32 36.07822 -115.14159 2093 ft 13 kts 178°
2026-05-05 23:32 36.07758 -115.14083 2093 ft 17 kts 92°
2026-05-05 23:32 36.07754 -115.13920 2092 ft 21 kts 90°
2026-05-05 23:32 36.07755 -115.13728 2091 ft 24 kts 91°
2026-05-05 23:33 36.07754 -115.13527 2090 ft 23 kts 90°
2026-05-05 23:33 36.07757 -115.13334 2088 ft 22 kts 87°
2026-05-05 23:33 36.07756 -115.13146 2083 ft 22 kts 91°
2026-05-05 23:33 36.07755 -115.12976 2076 ft 19 kts 90°
2026-05-05 23:34 36.07755 -115.12817 2069 ft 18 kts 89°
2026-05-05 23:34 36.07756 -115.12657 2063 ft 19 kts 99°
2026-05-05 23:34 36.07655 -115.12622 2063 ft 19 kts 240°
2026-05-05 23:34 36.07641 -115.12801 2070 ft 39 kts 271°
2026-05-05 23:35 36.07640 -115.13459 2088 ft 114 kts 270°
2026-05-05 23:35 36.07640 -115.14731 2102 ft 176 kts 270°
2026-05-05 23:35 36.07640 -115.16362 2477 ft 200 kts 269°
2026-05-05 23:35 36.07666 -115.18114 3363 ft 207 kts 272°
2026-05-05 23:36 36.07723 -115.19920 4189 ft 211 kts 269°
2026-05-05 23:36 36.07609 -115.21693 5083 ft 200 kts 258°
2026-05-05 23:36 36.07301 -115.23408 5569 ft 215 kts 258°
2026-05-05 23:36 36.06664 -115.25196 5754 ft 243 kts 229°
2026-05-05 23:37 36.05351 -115.26615 6126 ft 264 kts 211°
2026-05-05 23:37 36.03613 -115.27479 6714 ft 275 kts 200°
2026-05-05 23:37 36.01799 -115.28293 7429 ft 278 kts 203°
2026-05-05 23:37 36.00014 -115.29123 7882 ft 282 kts 200°
2026-05-05 23:38 35.98137 -115.29795 8171 ft 281 kts 193°
2026-05-05 23:38 35.96197 -115.30271 8753 ft 289 kts 192°
2026-05-05 23:38 35.94207 -115.30725 9508 ft 293 kts 191°
2026-05-05 23:38 35.92184 -115.31188 10224 ft 298 kts 191°
2026-05-05 23:39 35.90087 -115.31678 10553 ft 319 kts 191°
2026-05-05 23:39 35.87859 -115.32209 10720 ft 342 kts 191°
2026-05-05 23:39 35.85464 -115.32786 11310 ft 348 kts 192°
2026-05-05 23:39 35.83113 -115.33355 12088 ft 351 kts 191°
2026-05-05 23:40 35.80684 -115.33947 12613 ft 361 kts 191°
2026-05-05 23:40 35.78205 -115.34554 13317 ft 364 kts 191°
2026-05-05 23:40 35.75696 -115.35169 13911 ft 371 kts 191°
2026-05-05 23:40 35.73166 -115.35789 14638 ft 371 kts 191°
2026-05-05 23:41 35.70617 -115.36413 15235 ft 376 kts 191°
2026-05-05 23:41 35.68037 -115.37044 15871 ft 379 kts 191°
2026-05-05 23:41 35.65445 -115.37677 16488 ft 382 kts 191°
2026-05-05 23:41 35.62824 -115.38317 17132 ft 385 kts 191°
2026-05-05 23:42 35.60164 -115.38844 17673 ft 390 kts 181°
2026-05-05 23:42 35.57459 -115.38720 18351 ft 390 kts 174°
2026-05-05 23:42 35.54739 -115.38436 18861 ft 394 kts 174°
2026-05-05 23:42 35.51999 -115.38174 19386 ft 397 kts 175°
2026-05-05 23:43 35.49227 -115.37954 19919 ft 400 kts 175°
2026-05-05 23:43 35.46430 -115.37756 20444 ft 404 kts 176°
2026-05-05 23:43 35.43615 -115.38047 20840 ft 413 kts 195°
2026-05-05 23:43 35.40969 -115.39445 21457 ft 414 kts 206°
2026-05-05 23:44 35.38412 -115.41100 22008 ft 418 kts 207°
2026-05-05 23:44 35.35840 -115.42799 22448 ft 423 kts 207°
2026-05-05 23:44 35.33228 -115.44519 22899 ft 428 kts 207°
2026-05-05 23:44 35.30587 -115.46240 23387 ft 431 kts 207°
2026-05-05 23:45 35.27922 -115.47958 23802 ft 435 kts 206°
2026-05-05 23:45 35.25237 -115.49678 24280 ft 436 kts 206°
2026-05-05 23:45 35.22555 -115.51391 24868 ft 434 kts 206°
2026-05-05 23:45 35.19892 -115.53090 25473 ft 432 kts 206°
2026-05-05 23:46 35.17222 -115.54791 25980 ft 432 kts 206°
2026-05-05 23:46 35.14546 -115.56495 26422 ft 434 kts 206°
2026-05-05 23:46 35.11952 -115.58381 26918 ft 435 kts 220°
2026-05-05 23:46 35.09851 -115.60987 27739 ft 426 kts 227°
2026-05-05 23:47 35.07838 -115.63653 27863 ft 433 kts 227°
2026-05-05 23:47 35.05777 -115.66345 27878 ft 433 kts 226°
2026-05-05 23:47 35.03734 -115.68984 27896 ft 432 kts 226°
2026-05-05 23:47 35.01671 -115.71626 27894 ft 428 kts 226°
2026-05-05 23:48 34.99586 -115.74285 27904 ft 429 kts 226°
2026-05-05 23:48 34.97545 -115.76883 27889 ft 430 kts 226°
2026-05-05 23:48 34.95469 -115.79522 27908 ft 431 kts 226°
2026-05-05 23:48 34.93392 -115.82160 27891 ft 432 kts 226°
2026-05-05 23:49 34.91303 -115.84813 27884 ft 433 kts 226°
2026-05-05 23:49 34.89219 -115.87457 27899 ft 433 kts 226°
2026-05-05 23:49 34.87136 -115.90100 27900 ft 433 kts 226°
2026-05-05 23:49 34.85052 -115.92742 27893 ft 433 kts 226°
2026-05-05 23:50 34.82967 -115.95383 27879 ft 432 kts 226°
2026-05-05 23:50 34.80887 -115.98017 27893 ft 431 kts 226°
2026-05-05 23:50 34.78813 -116.00639 27905 ft 427 kts 226°
2026-05-05 23:50 34.76770 -116.03222 27873 ft 422 kts 226°
2026-05-05 23:51 34.74751 -116.05787 27891 ft 419 kts 227°
2026-05-05 23:51 34.72736 -116.08355 27889 ft 421 kts 227°
2026-05-05 23:51 34.70709 -116.10940 27893 ft 423 kts 227°
2026-05-05 23:51 34.68672 -116.13535 27896 ft 425 kts 227°
2026-05-05 23:52 34.66624 -116.16142 27890 ft 427 kts 227°
2026-05-05 23:52 34.64569 -116.18754 27891 ft 427 kts 227°
2026-05-05 23:52 34.62518 -116.21359 27898 ft 427 kts 226°
2026-05-05 23:52 34.60468 -116.23959 27889 ft 426 kts 227°
2026-05-05 23:53 34.58421 -116.26555 27885 ft 425 kts 227°
2026-05-05 23:53 34.56381 -116.29139 27884 ft 423 kts 227°
2026-05-05 23:53 34.54347 -116.31713 27889 ft 422 kts 227°
2026-05-05 23:53 34.52317 -116.34281 27885 ft 422 kts 227°
2026-05-05 23:54 34.50292 -116.36842 27898 ft 421 kts 227°
2026-05-05 23:54 34.48267 -116.39401 27894 ft 418 kts 227°
2026-05-05 23:54 34.46286 -116.41901 27894 ft 404 kts 227°